Location: Cormont
(50.5693°N, 1.7416°E)
Time: 02:26:47
(UTC+00:00)

Lacrosse 5 - Pass Details

Date: 21 October 2019
Orbit: 715 x 724 km, 57.0° (Epoch: 12 November)

Event Time Altitude Azimuth Distance (km) Brightness Sun altitude
Rises 18:15:46 0° 302° (WNW) 3,126 6.2 -14.3°
Reaches altitude 10° 18:18:10 10° 299° (WNW) 2,202 5.4 -14.7°
Maximum altitude 18:23:10 61° 220° (SW) 814 2.3 -15.5°
Enters shadow 18:27:30 14° 142° (SE) 1,956 3.7 -16.2°
